Weather History for KLWS - October, 2012

Change the Weather History Date:

Tuesday, October 2, 2012

  Actual Average Record
Temperature  
Mean Temperature 64 °F 58 °F  
Max Temperature 79 °F 70 °F 93 °F (1943)
Min Temperature 48 °F 45 °F 30 °F (1954)
Degree Days  
Heating Degree Days 1 8  
Month to date heating degree days 1 15  
Since 1 July heating degree days 13 129  
Cooling Degree Days 0 0  
Month to date cooling degree days 1 1  
Year to date cooling degree days 1034 805  
Growing Degree Days 16 (Base 50)    
Moisture  
Dew Point 30 °F    
Average Humidity 33    
Maximum Humidity 50    
Minimum Humidity 15    
Precipitation  
Precipitation 0.00 in 0.02 in 0.73 in (1915)
Month to date precipitation 0.00 0.05  
Year to date precipitation 11.26 9.25  
Snow  
Snow 0.00 in 0.00 in 0.00 in (1995)
Month to date snowfall 0.0 0.0  
Since 1 July snowfall 0.0 0.0  
Since 1 September snowfall 0.0 0.0  
Snow Depth 0.00 in    
Sea Level Pressure  
Sea Level Pressure 29.97 in    
Wind  
Wind Speed 11 mph (WNW)    
Max Wind Speed 32 mph    
Max Gust Speed 39 mph    
Visibility 9 miles    
Events      
T = Trace of Precipitation, MM = Missing Value Source: NWS Daily Summary

Daily Weather History Graph

Daily Weather History Graph

Search for Another Location

Airport or City:

Trip Planner

Search our weather history database for the weather conditions in past years. The results will help you decide how hot, cold, wet, or windy it might be!

Date:

Astronomy

Oct. 02, 2012 Rise Set
Actual Time 6:48 AM PDT 6:24 PM PDT
Civil Twilight 6:18 AM PDT 6:54 PM PDT
Nautical Twilight 5:43 AM PDT 7:29 PM PDT
Astronomical Twilight 5:08 AM PDT 8:04 PM PDT
Moon 7:28 PM PDT (10/2) 9:31 AM PDT (10/2)
Length of Visible Light 12h 36m
Length of Day
11h 36m
Waning Gibbous, 93% of the Moon is Illuminated
Oct 2
Waning Gibbous
Oct 8
Last Quarter
Oct 15
New
Oct 21
First Quarter
Oct 29
Full

Hourly Weather History & Observations

Time (PDT) Temp. Dew Point Humidity Pressure Visibility Wind Dir Wind Speed Gust Speed Precip Events Conditions
12:56 AM 61.0 °F 33.1 °F 35% 29.94 in 10.0 mi Calm Calm - N/A   Clear
1:56 AM 57.0 °F 34.0 °F 42% 29.93 in 10.0 mi NE 5.8 mph - N/A   Clear
2:56 AM 55.0 °F 34.0 °F 45% 29.94 in 10.0 mi SE 3.5 mph - N/A   Clear
3:56 AM 55.0 °F 33.1 °F 43% 29.95 in 10.0 mi NE 6.9 mph - N/A   Clear
4:56 AM 54.0 °F 35.1 °F 49% 29.95 in 10.0 mi Calm Calm - N/A   Clear
5:56 AM 53.1 °F 34.0 °F 48% 29.97 in 10.0 mi Calm Calm - N/A   Clear
6:56 AM 52.0 °F 34.0 °F 50% 29.97 in 10.0 mi SSE 4.6 mph - N/A   Clear
7:56 AM 57.0 °F 35.1 °F 44% 29.97 in 10.0 mi Calm Calm - N/A   Partly Cloudy
8:56 AM 63.0 °F 39.9 °F 43% 29.98 in 10.0 mi Calm Calm - N/A   Partly Cloudy
9:56 AM 66.9 °F 41.0 °F 39% 29.97 in 10.0 mi NW 11.5 mph 18.4 mph N/A   Clear
10:56 AM 72.0 °F 44.1 °F 37% 29.95 in 10.0 mi NW 16.1 mph 20.7 mph N/A   Clear
11:56 AM 75.9 °F 43.0 °F 31% 29.93 in 10.0 mi WNW 12.7 mph - N/A   Clear
12:56 PM 77.0 °F 33.8 °F 21% 29.93 in 9.0 mi WNW 16.1 mph 28.8 mph N/A   Clear
1:56 PM 78.1 °F 27.0 °F 15% 29.88 in 10.0 mi NNW 20.7 mph 26.5 mph N/A   Clear
2:56 PM 78.1 °F 33.1 °F 19% 29.87 in 10.0 mi NW 15.0 mph 25.3 mph N/A   Clear
3:56 PM 77.0 °F 27.0 °F 16% 29.87 in 10.0 mi WNW 18.4 mph 24.2 mph N/A   Clear
4:56 PM 75.9 °F 35.1 °F 23% 29.85 in 10.0 mi WNW 26.5 mph 32.2 mph N/A   Clear
5:56 PM 73.4 °F 28.4 °F 19% 29.88 in 10.0 mi West 18.4 mph - N/A   Clear
6:56 PM 71.6 °F 26.6 °F 19% 29.89 in 10.0 mi WNW 17.3 mph 24.2 mph N/A   Clear
7:17 PM 62.6 °F 21.2 °F 20% 29.94 in 2.0 mi NNW 21.9 mph 39.1 mph N/A   Haze
7:31 PM 62.6 °F 21.2 °F 20% 29.97 in 4.0 mi WNW 15.0 mph 31.1 mph N/A   Haze
7:48 PM 60.8 °F 21.2 °F 22% 30.00 in 6.0 mi WNW 10.4 mph 21.9 mph N/A   Haze
7:56 PM 61.0 °F 19.9 °F 21% 30.02 in 8.0 mi West 10.4 mph 23.0 mph N/A   Partly Cloudy
8:56 PM 57.9 °F 12.0 °F 16% 30.06 in 10.0 mi WNW 19.6 mph 24.2 mph N/A   Mostly Cloudy
9:56 PM 54.0 °F 12.9 °F 20% 30.12 in 10.0 mi WNW 13.8 mph 25.3 mph N/A   Clear
10:56 PM 53.1 °F 15.1 °F 22% 30.14 in 10.0 mi WNW 8.1 mph - N/A   Mostly Cloudy
11:56 PM 48.9 °F 16.0 °F 27% 30.17 in 10.0 mi West 8.1 mph - N/A   Clear